Sitka, AK

10:29 PM AKDT on September 19, 2017 (GMT -0800)
Sitka Rocky Gutierrez

Weather History for PASI - October, 2014

Change the Weather History Date:

Monday, October 20, 2014

  Actual Average Record
Temperature  
Mean Temperature 45 °F -  
Max Temperature 50 °F 48 °F 60 °F (1986)
Min Temperature 42 °F 39 °F 31 °F (1961)
Degree Days  
Heating Degree Days 20    
Moisture  
Dew Point 45 °F    
Average Humidity 91    
Maximum Humidity 100    
Minimum Humidity 80    
Precipitation  
Precipitation 0.27 in - - ()
Sea Level Pressure  
Sea Level Pressure 29.27 in    
Wind  
Wind Speed 8 mph (ESE)    
Max Wind Speed 12 mph    
Max Gust Speed -    
Visibility 9 miles    
Events Rain    
Averages and records for this station are not official NWS values.
T = Trace of Precipitation, MM = Missing Value Source: NWS Daily Summary

Daily Weather History Graph

Daily Weather History Graph

Search for Another Location

Airport or City:

Trip Planner

Search our weather history database for the weather conditions in past years. The results will help you decide how hot, cold, wet, or windy it might be!

Date:

Astronomy

Oct. 20, 2014 Rise Set
Actual Time 7:45 AM AKDT 5:45 PM AKDT
Civil Twilight 7:06 AM AKDT 6:24 PM AKDT
Nautical Twilight 6:22 AM AKDT 7:08 PM AKDT
Astronomical Twilight 5:37 AM AKDT 7:53 PM AKDT
Moon 4:06 AM AKDT 4:41 PM AKDT
Length of Visible Light 11h 17m
Length of Day
9h 59m
Waning Crescent, 9% of the Moon is Illuminated
Oct 20
Waning Crescent
Oct 23
New
Oct 30
First Quarter
Nov 6
Full
Nov 14
Last Quarter

Hourly Weather History & Observations

Time (AKDT) Temp. Windchill Dew Point Humidity Pressure Visibility Wind Dir Wind Speed Gust Speed Precip Events Conditions
12:53 AM 48.9 °F - 46.0 °F 90% 29.17 in 10.0 mi SE 11.5 mph - 0.00 in   Overcast
1:53 AM 48.9 °F - 46.0 °F 90% 29.17 in 10.0 mi SE 10.4 mph - 0.00 in Rain Light Rain
2:53 AM 48.9 °F - 45.0 °F 86% 29.17 in 10.0 mi SE 11.5 mph - 0.01 in Rain Light Rain
3:53 AM 48.0 °F - 46.0 °F 93% 29.18 in 6.0 mi SSE 10.4 mph - 0.05 in Rain Rain
4:53 AM 48.0 °F - 45.0 °F 89% 29.16 in 10.0 mi East 10.4 mph - 0.03 in Rain Light Rain
5:53 AM 48.0 °F - 46.0 °F 93% 29.17 in 8.0 mi SE 6.9 mph - 0.02 in Rain Light Rain
6:53 AM 46.9 °F - 46.0 °F 97% 29.20 in 3.0 mi ESE 3.5 mph - 0.05 in Rain Light Rain
7:00 AM 46.9 °F - 46.0 °F 97% 29.19 in 6.0 mi East 3.5 mph - 0.00 in Rain Light Rain
7:53 AM 46.0 °F 42.5 °F 46.0 °F 100% 29.21 in 3.0 mi ESE 6.9 mph - 0.01 in Rain Light Rain
8:00 AM 46.9 °F - 46.9 °F 100% 29.22 in 3.0 mi SSE 11.5 mph - 0.03 in Rain Rain
8:21 AM 46.9 °F - 46.9 °F 100% 29.23 in 3.0 mi SE 4.6 mph - 0.15 in Rain Light Rain
8:53 AM 48.2 °F - 48.2 °F 100% 29.24 in 10.0 mi East 3.5 mph - N/A   Overcast
9:44 AM 48.0 °F - 45.0 °F 89% 29.27 in 10.0 mi SW 6.9 mph - N/A   Overcast
9:53 AM 48.9 °F - 45.0 °F 86% 29.27 in 10.0 mi SW 6.9 mph - N/A   Overcast
10:53 AM 48.0 °F - 48.0 °F 100% 29.30 in 10.0 mi East 3.5 mph - 0.00 in   Overcast
11:53 AM 48.9 °F - 46.0 °F 90% 29.31 in 10.0 mi ESE 6.9 mph - N/A   Overcast
12:53 PM 48.0 °F - 45.0 °F 89% 29.32 in 10.0 mi SE 5.8 mph - 0.00 in Rain Light Rain
1:53 PM 46.0 °F 44.8 °F 44.1 °F 93% 29.33 in 7.0 mi ENE 3.5 mph - 0.07 in Rain Light Rain
2:23 PM 46.9 °F - 45.0 °F 93% 29.33 in 10.0 mi WNW 4.6 mph - 0.03 in Rain Light Rain
2:53 PM 46.9 °F - 45.0 °F 93% 29.33 in 10.0 mi NE 3.5 mph - 0.03 in   Mostly Cloudy
3:11 PM 48.0 °F - 43.0 °F 83% 29.33 in 10.0 mi East 6.9 mph - N/A   Mostly Cloudy
3:53 PM 48.9 °F - 45.0 °F 86% 29.33 in 10.0 mi ESE 4.6 mph - N/A   Mostly Cloudy
4:53 PM 48.9 °F - 45.0 °F 86% 29.34 in 10.0 mi South 8.1 mph - N/A   Mostly Cloudy
5:53 PM 46.9 °F - 42.1 °F 83% 29.35 in 10.0 mi ESE 6.9 mph - N/A   Scattered Clouds
6:53 PM 44.1 °F 39.5 °F 43.0 °F 96% 29.36 in 10.0 mi East 8.1 mph - N/A   Scattered Clouds
7:53 PM 45.0 °F 40.6 °F 43.0 °F 93% 29.36 in 10.0 mi East 8.1 mph - N/A   Mostly Cloudy
8:53 PM 44.1 °F 39.0 °F 42.1 °F 93% 29.36 in 10.0 mi East 9.2 mph - N/A   Mostly Cloudy
9:53 PM 43.0 °F 38.2 °F 39.0 °F 86% 29.35 in 10.0 mi East 8.1 mph - N/A   Scattered Clouds
10:53 PM 42.1 °F 37.1 °F 39.0 °F 89% 29.34 in 10.0 mi East 8.1 mph - N/A   Clear
11:53 PM 45.0 °F 40.1 °F 39.0 °F 80% 29.34 in 10.0 mi East 9.2 mph - N/A   Mostly Cloudy